Wind_Speed
17 16 15 15 13 13 15 16 14 12 11 12 11 11 10 9 7 4 2 3 3 1 1 1 1 2 1 1 3 6 7 7 6 7 9 10 9 8 9 9 10 11 11 10 9 7 7 8 8 8 7 8 9 9 8 8 10 10 9 11 12 12 11 12 12 12 13 13 13 13 12 14 14 14 15 16 17 18 16 14 14 14 14 14 15
18 17 17 17 16 15 16 18 18 16 13 13 12 11 10 9 7 7 6 6 5 2 1 2 2 2 1 0 2 4 6 7 7 7 7 8 9 8 8 9 10 11 11 10 9 7 6 7 8 9 9 9 9 9 8 8 8 8 9 10 11 11 11 11 12 13 14 14 13 12 11 13 13 12 13 15 16 17 17 17 15 14 15 15 14
20 19 19 19 18 18 18 19 19 17 15 14 13 12 10 8 8 10 8 7 7 3 4 4 3 2 1 1 2 5 7 7 7 6 6 6 8 8 8 8 9 9 9 8 7 7 7 8 9 9 10 9 9 9 9 9 9 9 8 9 10 11 10 12 13 14 14 15 15 14 13 13 13 12 11 11 12 12 13 14 12 12 15 17 16
21 20 20 21 20 21 20 21 21 19 18 16 15 14 11 9 11 10 7 8 8 4 4 5 3 2 1 1 2 4 6 7 7 6 5 5 5 6 7 7 7 7 7 6 5 6 8 9 9 9 9 9 9 9 9 9 9 9 9 9 9 10 10 12 12 12 15 17 15 14 14 14 13 13 12 12 12 11 10 10 10 12 14 15 15
22 21 21 21 22 22 22 23 23 22 20 18 16 15 13 12 12 10 8 10 8 5 5 5 3 2 4 2 0 2 2 4 5 6 5 4 4 4 5 5 6 6 5 5 5 7 8 9 9 9 9 9 10 11 10 10 10 11 11 10 10 9 10 10 10 11 14 15 13 13 14 13 13 14 14 15 16 15 13 13 14 15 16 16 16
22 22 22 23 24 24 24 24 25 23 22 20 17 15 14 13 13 11 9 9 8 7 7 4 4 5 6 5 3 1 1 1 2 3 4 4 4 4 5 5 6 6 6 6 6 7 8 9 9 10 10 11 12 12 12 11 11 12 12 11 11 9 8 9 9 11 12 12 11 14 14 13 14 16 15 15 16 17 18 18 18 19 20 19 19
23 23 23 24 25 26 26 26 26 24 23 21 18 15 14 14 13 11 9 9 9 9 7 7 9 9 8 7 6 4 3 1 1 2 2 3 4 5 5 5 7 7 5 5 6 7 9 9 10 11 12 12 12 13 12 12 12 12 12 12 11 10 9 8 8 10 10 9 12 15 13 12 15 16 15 15 15 16 20 23 23 23 23 22 21
25 24 24 25 25 26 27 27 26 25 24 22 19 16 15 15 13 11 11 12 12 10 10 11 12 12 12 10 7 6 4 2 1 1 2 3 4 5 6 6 7 8 6 5 7 8 9 10 11 11 11 11 11 12 12 12 12 12 12 12 12 12 12 11 10 11 10 10 12 14 13 13 15 16 17 18 18 19 22 24 24 24 24 23 22
26 26 26 26 26 26 27 27 27 26 24 22 19 17 16 16 14 12 13 14 14 13 13 14 14 14 14 11 7 5 3 2 2 2 3 4 5 5 6 7 7 7 7 5 6 10 11 11 11 11 10 10 10 10 11 12 13 13 13 13 13 14 14 14 14 14 14 12 12 13 14 15 16 18 18 19 21 23 23 23 23 23 23 23 23
28 27 27 27 27 26 26 26 26 26 25 21 18 18 17 16 15 14 15 16 16 16 16 15 15 15 13 10 7 5 3 3 4 3 3 4 5 6 6 7 7 6 7 6 6 8 10 11 11 10 9 9 9 8 9 12 13 14 14 13 14 15 15 15 16 16 16 13 13 14 14 15 17 17 17 19 23 24 24 25 25 25 25 26 25
29 28 27 27 27 26 26 26 26 24 23 21 19 18 18 16 16 15 16 17 17 17 16 15 15 15 12 9 7 4 3 4 4 4 4 4 6 6 6 7 7 6 6 6 5 5 5 6 9 10 9 9 9 8 8 10 12 13 13 13 14 15 15 15 16 17 16 14 13 14 14 16 18 18 19 22 24 24 25 25 25 26 27 27 26
29 29 28 27 27 26 26 26 25 23 21 20 20 19 17 17 17 17 18 19 19 17 16 15 16 16 11 8 6 4 4 5 5 5 5 6 7 7 7 7 7 6 6 6 5 4 4 4 7 9 10 9 9 10 8 8 10 11 11 12 14 15 15 15 17 19 18 15 14 14 14 16 18 19 21 23 23 23 23 23 24 25 25 24 25
29 29 28 27 27 27 26 25 24 23 22 21 20 19 19 19 18 19 21 21 19 18 18 19 18 16 11 9 7 5 5 5 4 5 6 7 8 7 6 6 7 6 5 6 6 5 4 3 6 8 10 9 10 10 9 8 9 10 10 11 12 13 13 14 16 19 19 16 16 16 15 16 18 20 22 23 23 23 23 24 24 22 22 22 24
29 28 28 28 27 26 26 25 24 23 23 22 19 19 20 19 19 21 23 22 20 20 21 21 19 16 13 10 8 7 5 4 4 6 7 8 9 8 6 4 5 5 3 4 5 5 5 2 5 7 9 9 10 10 10 10 10 9 8 8 8 10 11 12 16 19 18 16 16 17 16 16 18 20 22 22 23 24 25 27 24 20 20 22 22
28 28 28 28 27 26 26 25 25 24 24 21 19 20 21 21 22 24 24 22 22 23 22 21 20 17 14 11 9 7 5 5 6 6 7 9 9 9 7 4 4 4 4 4 4 4 5 1 4 7 8 8 10 10 11 11 11 10 9 9 8 8 8 11 17 18 17 15 14 15 15 16 17 19 19 20 21 22 25 26 22 19 21 21 20
27 27 27 28 27 26 25 25 25 25 24 22 21 22 23 23 25 26 24 23 23 23 22 21 20 18 13 12 10 7 6 6 5 5 7 8 8 9 7 3 3 4 3 1 0 1 2 2 5 7 8 8 9 10 11 11 12 12 12 13 13 11 10 13 18 19 18 15 12 12 13 15 17 17 18 19 19 20 22 23 21 22 25 24 22
26 27 27 27 27 26 25 25 25 26 25 23 23 24 25 26 28 26 25 24 23 23 23 22 20 17 14 12 10 6 6 5 4 5 8 9 10 12 8 6 4 1 1 2 2 2 3 6 8 8 8 8 9 10 11 12 13 14 14 15 17 17 17 18 20 21 18 14 12 14 15 16 17 17 17 18 17 18 19 21 22 25 25 24 23
26 26 26 25 25 26 25 25 25 26 25 23 24 26 27 28 28 25 24 24 23 23 24 22 19 16 13 11 8 5 5 4 5 9 10 11 13 12 8 8 6 2 3 5 4 4 3 6 9 9 8 9 9 10 12 13 14 15 16 17 19 19 20 21 21 20 15 11 13 16 17 17 17 17 18 19 17 16 17 18 21 24 22 22 23
25 24 24 24 24 24 24 24 25 25 25 24 24 27 29 28 26 23 22 24 25 25 25 22 19 16 11 8 6 5 6 7 9 9 10 14 15 11 9 8 5 2 4 6 7 6 4 5 7 8 9 9 10 11 13 14 15 16 17 18 20 20 20 20 20 19 16 16 18 18 15 14 17 17 18 18 15 13 13 15 20 21 20 21 23
24 23 23 24 23 23 23 25 25 26 26 26 26 27 28 28 26 24 24 26 28 27 24 22 20 17 11 9 9 8 8 8 8 9 11 15 17 13 12 12 8 6 6 8 10 8 5 5 5 8 9 10 10 12 13 15 15 16 17 19 20 19 18 17 18 18 18 18 19 20 16 14 15 16 16 16 15 15 17 20 22 20 19 21 23
22 22 22 23 24 24 25 27 28 28 26 24 25 27 28 29 28 26 27 29 28 25 23 22 21 17 13 13 13 11 8 7 8 9 10 12 14 13 12 13 13 11 7 6 8 7 4 5 5 8 10 10 11 12 14 14 14 16 18 18 19 18 15 14 16 17 17 15 18 21 19 16 15 16 17 17 18 20 22 24 24 21 18 21 23
18 19 20 21 21 23 25 27 29 29 26 26 27 29 31 32 30 29 29 29 26 24 24 24 20 16 14 14 13 10 9 10 10 9 7 7 8 9 10 12 13 13 9 6 7 5 5 7 7 8 9 10 12 12 13 13 14 16 18 17 17 17 15 13 15 17 17 16 19 21 20 17 17 17 19 20 22 23 24 25 24 22 20 21 23
15 16 18 18 18 21 23 25 25 25 25 27 28 30 32 32 29 29 29 26 24 26 26 23 19 16 14 13 12 11 11 12 11 9 7 5 3 4 7 11 13 14 11 9 8 9 9 8 7 8 8 10 11 11 12 14 15 17 18 16 15 15 15 14 16 18 18 18 20 21 19 16 17 17 19 21 23 25 25 23 21 20 21 22 22
14 15 17 17 16 17 18 18 19 21 22 22 22 25 29 30 28 29 29 26 26 28 26 21 18 17 15 15 17 15 12 11 10 8 6 5 3 3 7 11 13 14 13 11 11 11 10 8 7 8 8 9 10 11 13 14 15 17 17 15 14 15 16 15 16 18 19 20 21 20 17 15 15 17 19 21 23 23 22 21 20 21 23 23 23
11 12 13 13 13 13 12 11 13 16 18 17 19 24 28 29 30 30 29 28 26 26 23 19 18 18 16 19 22 19 14 11 10 8 6 5 4 3 7 10 13 14 13 12 11 11 9 8 7 7 7 8 10 13 15 14 14 15 16 15 15 16 16 15 16 19 20 20 20 19 17 16 17 18 20 21 21 21 20 21 22 24 23 23 24
3 3 5 6 7 9 10 11 13 15 16 17 20 25 30 32 33 32 30 28 26 24 21 19 18 18 20 22 23 21 16 13 11 9 7 5 3 5 7 7 8 10 11 11 11 10 7 5 5 6 7 9 11 14 15 15 15 15 15 16 17 17 16 16 17 19 19 19 19 19 19 20 20 20 19 20 20 20 21 22 25 25 25 26 28
6 6 7 8 10 12 14 15 16 17 19 20 23 28 33 34 32 30 29 28 26 23 21 18 19 22 23 23 24 23 18 14 12 9 7 6 6 8 8 7 7 8 8 8 8 7 5 6 6 6 8 11 12 13 15 15 14 14 14 15 16 16 16 17 17 18 18 19 20 22 23 23 22 19 19 20 20 20 21 23 25 26 27 28 29
18 18 19 19 20 20 22 22 21 21 22 23 26 31 34 33 30 29 28 27 24 22 19 19 23 25 23 23 26 25 20 16 13 10 7 7 9 11 9 8 9 7 4 3 4 6 7 8 7 5 9 12 12 12 13 12 12 13 14 14 14 15 15 16 16 16 16 18 21 23 23 22 19 18 19 19 20 19 20 21 23 24 25 25 26
20 20 21 21 21 22 22 23 23 23 23 24 28 32 32 30 29 27 24 22 21 20 19 21 25 25 22 23 25 23 20 16 14 11 7 7 9 9 8 8 8 5 3 5 6 7 7 6 4 6 8 10 11 11 11 12 12 13 14 14 14 15 15 15 15 15 16 19 22 22 21 19 17 18 19 19 20 19 19 20 22 23 23 24 24
17 18 18 19 21 21 21 21 20 21 23 26 29 31 30 28 27 25 22 21 20 19 20 24 26 24 24 26 24 20 18 17 14 11 8 6 7 8 8 8 8 7 7 8 7 7 6 3 6 7 8 9 10 11 11 12 13 13 14 14 15 15 15 14 15 18 21 22 20 17 16 17 17 17 17 18 19 19 18 19 21 22 22 23 25
11 13 15 18 19 19 19 19 20 22 25 26 28 29 28 26 25 24 22 21 22 24 25 25 23 24 27 27 23 19 18 17 15 13 9 8 9 11 11 11 10 9 8 7 6 6 3 2 5 7 8 9 10 10 11 12 13 14 14 14 15 15 14 14 17 21 23 22 19 16 16 16 17 18 18 18 19 19 19 20 21 22 22 23 24
8 10 12 15 17 18 18 19 21 24 26 26 27 27 26 25 25 23 21 22 25 26 24 21 20 23 26 26 25 23 20 17 15 13 11 10 10 11 11 10 8 8 7 6 6 5 1 2 5 7 8 8 9 10 11 12 13 13 14 15 15 14 14 16 20 22 21 20 21 21 19 17 18 20 20 19 19 20 21 21 22 22 23 23 23
9 12 15 16 16 15 17 19 22 24 25 26 26 26 26 27 27 25 24 25 25 23 20 20 21 23 23 23 23 22 19 16 14 13 11 10 9 9 8 6 5 7 6 5 5 3 1 3 7 7 7 8 9 9 11 11 12 13 14 14 14 14 15 17 18 16 16 19 24 24 20 17 18 19 19 19 19 20 21 22 22 22 22 23 23
8 10 14 15 14 13 17 21 23 24 24 24 25 27 28 29 28 28 30 29 25 23 23 22 22 23 22 21 20 17 15 14 13 11 10 9 9 8 7 6 6 5 4 3 3 0 2 4 8 7 7 9 9 9 11 11 12 13 13 13 13 14 15 15 13 14 16 20 23 22 19 18 18 18 19 20 20 20 20 21 22 22 22 23 24
8 10 13 14 13 14 18 22 24 24 23 23 25 28 30 30 30 30 32 31 29 28 26 23 21 20 19 19 17 15 14 12 11 11 10 8 9 8 7 7 5 3 2 4 4 2 1 5 8 8 7 8 9 10 11 11 12 13 13 13 14 14 13 13 14 17 19 19 18 18 18 18 17 18 19 19 19 20 21 21 21 23 24 25 26
10 12 15 17 15 15 19 21 22 22 23 24 26 28 29 30 31 32 33 32 31 29 27 25 23 20 17 17 16 15 14 13 12 12 11 9 9 9 9 7 5 2 2 4 3 2 4 7 8 7 7 8 9 10 11 12 13 13 12 13 14 14 13 13 15 17 17 15 15 16 16 16 16 17 18 18 19 20 20 21 22 24 25 27 28
12 14 17 19 17 16 19 20 20 21 22 23 25 26 27 30 32 33 32 31 30 29 29 27 25 22 20 18 16 14 14 14 13 13 12 11 10 10 9 8 7 4 2 3 4 5 7 7 7 7 7 9 9 10 11 12 12 12 13 16 16 14 12 13 14 15 15 15 14 14 14 15 16 16 17 18 19 20 20 22 24 26 26 26 27
14 15 17 18 17 17 19 20 20 21 22 23 26 27 28 30 32 32 30 30 31 31 29 26 24 23 20 17 15 15 16 16 16 14 12 11 10 9 8 7 6 4 3 5 6 7 7 7 6 7 8 9 10 11 11 11 12 14 15 16 14 12 11 11 13 15 18 18 16 15 15 15 15 16 17 18 20 22 23 25 27 27 27 26 25
16 17 19 18 16 16 20 22 22 23 24 25 26 28 29 28 29 29 31 32 32 31 29 25 23 21 18 16 16 18 19 18 16 13 11 10 9 8 7 6 4 3 5 6 7 7 7 6 6 7 8 9 10 11 12 13 15 16 15 13 11 10 11 14 17 18 18 16 15 14 15 15 15 16 18 20 22 25 26 27 26 26 26 27 26
17 18 19 20 18 19 22 24 24 26 28 29 29 29 29 28 28 30 33 35 33 31 28 26 23 19 16 16 18 20 20 17 13 10 9 8 6 4 5 5 4 6 8 7 7 7 6 6 6 8 9 10 10 12 14 16 16 14 13 12 12 13 16 19 20 18 15 13 14 15 14 14 17 21 24 24 24 24 25 25 25 25 26 27 27
18 17 17 19 21 22 24 25 25 28 31 32 31 29 28 28 30 31 34 35 33 30 27 24 21 17 16 16 18 19 17 12 8 7 7 6 4 4 5 6 7 8 7 6 7 7 6 7 9 10 10 10 11 15 17 17 14 12 12 12 14 17 20 19 16 13 12 13 15 15 15 18 23 28 28 25 24 24 24 24 25 26 26 27 27
18 18 16 18 22 25 26 27 27 28 30 31 30 28 27 28 30 33 35 35 32 29 26 22 18 16 16 17 18 14 10 9 8 7 7 8 9 9 9 8 7 7 7 8 9 9 9 10 11 11 10 10 14 17 17 15 12 12 13 13 15 18 19 15 11 10 11 13 16 18 21 25 30 31 28 25 25 25 26 25 26 27 27 27 26
18 17 15 16 20 24 26 27 26 26 27 26 25 25 26 28 31 34 35 33 30 26 23 19 16 15 16 18 16 12 9 10 11 9 8 10 10 10 9 7 7 7 9 11 10 10 11 12 12 11 10 12 16 17 15 14 13 13 14 15 16 17 15 11 9 10 13 16 19 23 27 31 32 30 27 26 26 27 27 27 27 27 27 26 26
17 16 15 15 19 22 24 26 26 26 25 25 24 25 27 30 33 35 34 30 26 23 20 17 17 17 17 18 18 15 11 11 12 11 10 9 9 9 8 7 8 11 13 12 12 13 14 14 13 12 12 13 15 16 15 14 14 15 15 15 14 13 11 10 12 15 18 21 25 28 30 31 30 28 26 26 27 28 28 28 28 28 27 27 27
14 14 14 15 19 22 23 25 25 25 25 24 25 28 31 34 35 34 30 26 22 19 18 18 18 17 18 21 22 18 13 11 12 12 11 10 10 9 8 8 11 14 14 13 14 15 15 14 13 12 11 12 13 13 14 14 14 14 14 12 11 11 12 14 17 20 22 24 27 29 29 28 27 26 26 27 27 28 29 28 28 28 28 26 25
13 14 14 15 18 20 21 22 23 23 24 26 29 32 35 35 33 31 27 22 20 19 21 21 18 18 21 24 23 18 14 12 12 12 12 12 11 9 9 11 14 14 14 14 14 14 14 14 12 11 10 11 12 12 13 13 12 10 10 10 11 13 15 17 20 22 24 26 29 29 27 26 26 26 26 27 27 28 28 29 28 27 25 23 23
14 17 17 17 18 19 19 20 22 24 26 30 32 34 35 34 31 27 23 20 20 22 23 21 20 23 25 23 18 15 15 15 15 14 14 13 12 11 12 14 15 15 14 14 14 13 13 13 12 11 11 11 12 12 13 12 9 8 10 12 13 14 16 18 21 23 25 28 30 28 26 26 26 26 26 27 27 27 28 28 27 24 22 22 24
18 20 19 18 19 18 18 20 24 27 30 32 33 33 33 31 26 21 19 19 23 25 23 20 21 25 24 19 14 11 11 14 16 16 14 13 13 13 14 16 17 16 14 13 13 12 12 13 12 11 11 11 11 12 13 10 8 10 13 14 14 15 17 19 22 24 26 28 28 26 25 25 26 25 26 26 26 27 28 27 24 22 22 23 25
19 22 21 19 18 17 19 23 27 30 32 32 32 32 29 24 20 18 18 21 25 27 23 20 21 23 22 19 15 12 11 13 15 15 14 14 14 14 15 17 19 17 14 12 11 11 13 14 13 11 10 10 10 11 10 9 10 14 16 16 16 18 20 21 23 25 26 26 25 24 24 24 24 25 25 25 26 26 26 24 22 21 22 24 26
19 19 18 17 16 17 21 25 29 30 31 32 31 29 24 19 17 19 23 25 25 24 21 21 22 23 23 21 18 17 17 17 16 14 14 14 14 14 16 18 19 16 12 10 10 11 12 13 13 12 11 10 10 8 8 11 15 17 17 17 18 19 20 21 24 25 25 24 23 22 23 24 24 25 25 25 25 24 23 22 21 21 23 25 28
19 18 16 16 17 20 24 27 29 31 31 31 29 24 21 20 22 25 26 26 25 23 22 22 23 23 22 21 21 21 21 19 16 15 15 14 14 15 18 21 20 17 13 11 10 11 12 12 12 11 11 10 9 10 12 15 16 18 18 19 19 18 19 20 22 22 22 22 22 21 22 23 24 24 24 24 23 22 22 22 23 24 26 28 30
Wind_Direction
197 199 196 192 189 194 199 191 181 184 204 212 198 189 197 191 184 201 195 213 220 158 18 299 102 105 151 262 326 351 12 35 49 37 31 36 50 67 69 65 66 64 51 39 41 48 51 52 45 38 33 22 20 26 35 50 44 32 36 34 20 15 15 13 8 358 356 355 356 4 357 345 350 355 351 344 335 333 336 333 327 321 314 305 297
198 197 197 197 192 196 204 200 192 188 199 214 203 196 206 196 192 208 208 232 239 184 189 230 174 169 207 254 336 353 10 31 49 58 54 45 48 60 70 74 73 69 61 50 42 32 24 31 31 24 21 17 21 28 30 41 42 27 30 33 18 10 14 18 10 357 353 355 358 2 353 346 351 351 349 344 335 337 348 350 344 336 329 321 315
198 197 199 201 198 199 203 204 202 196 200 213 207 202 209 202 208 220 214 231 250 225 204 215 198 192 203 276 329 348 6 24 41 57 74 70 62 63 67 73 78 77 71 61 47 27 20 28 29 22 20 21 26 33 33 36 34 22 25 29 14 6 18 22 9 356 353 354 356 356 352 352 352 343 344 348 344 350 359 355 345 341 341 338 332
196 197 201 202 203 205 204 206 206 204 206 213 210 207 208 208 221 229 220 232 251 247 209 212 222 215 142 72 4 10 10 15 28 44 66 76 75 77 74 71 76 79 75 63 37 19 22 31 31 24 23 27 31 34 33 31 25 18 19 20 11 10 22 21 7 355 350 347 348 350 349 352 352 340 330 328 329 336 344 337 325 328 338 340 335
195 196 201 204 207 209 208 209 210 210 212 215 215 213 207 210 225 227 218 231 241 224 209 217 216 153 135 152 107 51 34 13 20 31 44 55 63 76 81 74 69 65 59 52 34 17 21 28 28 24 24 28 31 31 29 26 22 19 18 14 14 21 25 16 4 356 351 348 350 351 345 346 351 347 337 329 326 325 321 316 316 326 334 334 332
195 196 201 206 209 211 212 213 214 214 217 219 220 219 213 216 225 224 221 230 228 217 220 205 165 156 162 187 219 229 225 330 33 40 45 56 62 66 74 76 75 67 49 38 30 16 17 27 29 25 23 26 29 29 26 23 21 20 17 14 13 15 22 21 10 359 353 352 356 350 345 348 350 349 345 337 333 332 328 320 317 326 336 338 337
197 197 203 208 211 213 214 215 215 216 220 222 220 218 217 220 224 224 226 228 219 216 215 185 173 182 192 206 223 230 240 250 112 97 76 75 77 77 74 67 72 76 53 20 21 23 22 26 27 26 26 25 24 24 22 19 19 17 14 13 11 6 10 17 10 0 356 360 358 349 346 347 343 340 337 329 323 327 333 332 329 329 332 334 333
198 199 204 208 211 214 216 217 217 218 221 223 219 214 215 221 223 219 221 222 214 209 206 199 201 211 220 231 241 241 246 241 170 134 103 93 90 93 89 76 75 83 72 24 11 21 28 30 27 23 23 25 21 20 21 19 18 19 17 16 16 13 10 7 2 356 354 355 354 347 344 339 332 332 332 326 324 327 331 334 334 332 330 327 325
199 199 204 209 211 214 216 217 218 219 221 222 217 214 216 220 220 215 216 217 210 207 211 217 223 230 234 239 241 238 235 200 185 160 106 96 87 89 94 90 87 91 89 63 19 14 19 24 27 21 15 17 20 21 30 33 26 23 26 24 21 19 14 9 5 358 352 351 350 348 346 339 333 337 336 331 331 332 331 331 332 332 329 323 319
201 201 204 208 211 212 213 215 216 218 220 218 215 216 218 218 217 214 213 212 210 213 217 223 231 236 236 231 224 217 196 172 173 158 129 113 100 94 94 94 93 91 89 81 56 35 21 9 13 22 18 15 20 24 37 46 37 23 22 23 18 16 14 8 4 358 353 351 351 352 350 339 335 339 337 329 329 332 333 333 331 329 328 326 323
204 203 204 208 212 211 210 213 214 216 219 218 215 216 218 217 215 211 206 207 212 215 215 218 227 234 232 220 209 201 174 162 157 147 144 138 120 105 98 97 96 94 93 87 77 64 39 356 357 20 33 31 33 31 33 47 44 24 14 16 15 10 5 0 359 358 355 349 346 348 346 336 332 334 332 329 329 330 329 329 328 328 328 330 330
207 206 205 207 210 209 208 211 212 212 215 216 214 213 215 215 213 206 203 208 211 210 206 209 219 229 229 209 198 189 168 157 149 146 148 145 132 116 112 117 114 114 121 120 111 90 63 0 350 19 40 41 42 42 36 44 49 30 11 12 14 5 354 349 349 352 353 349 346 346 341 333 331 333 335 335 334 331 328 327 327 328 332 337 335
209 207 205 206 209 209 208 208 209 209 211 212 213 212 211 213 210 204 205 210 208 201 200 208 219 227 222 206 199 185 164 153 149 152 151 150 145 130 128 140 136 137 152 150 138 121 91 18 349 18 40 41 43 47 40 38 45 35 14 11 12 360 348 341 338 340 344 344 345 344 340 335 332 335 340 341 338 336 335 332 332 335 339 338 330
209 208 206 206 207 209 208 207 207 209 209 211 214 213 212 211 205 202 206 208 203 199 203 210 219 222 216 208 200 184 173 171 167 159 151 155 151 130 119 134 135 135 145 141 136 121 100 39 346 18 38 38 38 42 37 30 32 29 16 12 11 1 350 333 322 327 335 338 337 337 339 339 336 337 340 341 341 342 340 338 340 341 336 328 324
209 210 209 206 206 209 209 207 208 210 211 213 218 218 215 208 202 203 206 205 202 205 208 212 218 220 214 204 196 192 196 191 179 169 159 162 154 129 118 118 109 117 133 137 141 127 110 81 354 25 38 34 31 30 27 22 18 15 11 7 5 5 351 320 310 320 331 331 328 334 340 339 336 337 340 341 343 342 340 341 341 334 327 326 330
208 211 211 208 206 207 208 208 209 211 214 217 218 215 211 205 203 204 205 204 205 207 208 211 218 218 207 199 200 204 208 203 199 189 170 163 147 128 132 163 140 140 174 206 7 104 92 38 9 26 34 27 23 21 17 13 7 3 3 360 354 353 341 317 314 324 328 322 326 337 339 336 335 335 338 342 344 341 338 338 334 329 331 336 338
210 212 213 210 207 207 208 210 211 213 216 216 212 210 210 207 204 205 206 206 205 205 205 208 213 211 202 201 205 213 221 224 210 172 159 154 146 136 149 201 207 167 292 311 352 19 30 18 9 13 21 17 13 12 8 3 360 357 356 354 349 345 339 330 328 332 328 327 346 350 341 337 335 333 337 342 342 338 336 334 329 328 333 335 333
212 212 213 211 209 210 211 212 214 216 217 215 211 209 208 206 205 206 208 207 203 202 203 204 203 202 200 203 211 225 228 202 156 153 153 154 156 146 149 191 211 257 276 273 307 323 332 351 353 353 2 6 4 4 0 355 354 354 353 353 349 346 344 343 342 342 340 350 1 351 340 338 336 333 335 336 331 330 334 333 327 329 334 332 327
215 215 213 208 206 209 213 216 219 219 216 213 211 208 204 203 206 206 204 203 201 199 200 200 196 194 197 207 215 214 205 180 164 165 162 162 167 157 140 158 195 227 217 247 290 300 294 324 338 337 347 358 357 355 355 352 351 353 353 353 353 352 354 357 356 354 357 3 356 343 336 339 340 337 336 336 337 338 339 332 326 330 336 332 326
218 218 213 209 212 220 222 219 220 223 219 212 210 207 201 199 204 204 199 197 197 196 198 198 196 194 204 223 221 214 212 198 175 165 165 171 179 175 154 156 172 173 186 228 247 250 268 305 319 325 338 351 351 348 351 351 350 353 355 356 358 359 360 5 6 0 359 359 347 337 336 339 339 338 337 339 340 331 322 321 323 328 333 329 324
222 222 219 219 225 231 227 219 218 224 222 207 198 200 201 202 204 203 197 195 196 199 203 203 201 203 216 230 230 227 221 194 163 155 163 176 187 192 190 188 184 175 177 205 210 212 249 271 285 319 333 341 345 346 349 350 351 354 356 358 1 2 358 1 3 358 354 347 335 333 337 338 332 331 329 327 323 316 314 319 323 327 329 326 322
227 227 226 227 226 222 217 212 210 214 216 207 198 199 202 205 208 207 203 202 206 211 210 206 206 212 221 227 229 219 194 172 164 168 173 180 194 206 213 210 196 185 176 150 143 171 231 252 274 309 324 333 341 344 348 352 354 355 357 357 359 359 355 351 352 352 350 341 329 328 331 330 327 327 325 321 316 312 313 318 324 327 324 317 315
223 223 219 218 218 211 205 200 198 203 209 207 203 203 204 207 213 216 214 213 214 212 208 205 211 222 224 215 203 189 177 174 179 187 188 195 221 222 204 198 195 192 186 171 172 200 231 254 279 303 319 332 341 348 353 355 354 356 358 355 351 351 351 346 344 344 341 334 326 324 323 321 321 322 322 320 319 318 321 326 330 329 323 316 310
201 209 209 208 210 208 202 199 202 209 212 209 209 213 213 214 218 219 217 217 215 210 207 210 221 228 220 195 180 179 185 189 191 197 203 213 238 223 185 184 193 199 200 201 208 220 237 264 288 306 320 332 345 356 0 356 352 353 356 352 344 342 341 340 341 339 333 328 328 329 329 325 320 315 313 315 319 323 328 329 325 321 320 320 315
190 202 209 212 216 218 220 220 217 220 226 231 232 230 225 223 220 216 213 214 211 207 210 220 228 224 205 183 181 189 196 194 187 188 205 231 244 199 173 179 195 206 212 220 225 227 238 263 287 303 320 340 352 357 358 354 346 347 352 350 343 337 335 335 336 332 327 325 326 326 325 322 316 311 310 315 321 324 325 322 318 316 318 319 316
195 219 223 224 232 235 233 228 222 225 235 242 240 238 236 231 224 218 214 211 208 210 218 223 217 203 186 178 187 197 197 192 187 185 203 232 218 167 158 165 184 198 209 220 225 226 238 272 292 305 333 353 354 351 351 350 346 347 351 347 339 336 338 337 332 326 324 323 318 313 312 314 316 317 319 320 321 321 320 319 319 318 318 318 317
254 261 250 243 248 251 248 245 240 236 238 243 244 240 233 226 222 220 216 211 209 214 218 211 195 185 180 184 194 197 192 190 192 190 203 218 186 157 147 148 164 187 206 218 224 234 266 298 301 316 347 356 351 347 347 348 347 348 344 337 331 332 334 330 323 319 319 315 308 305 310 316 319 323 324 322 321 320 319 319 322 323 323 323 323
253 250 250 252 252 252 253 253 249 242 239 239 236 228 221 219 222 223 219 214 214 215 211 199 185 178 181 191 196 192 188 192 198 201 210 209 189 174 170 178 185 194 216 253 268 278 292 300 305 336 354 349 342 340 338 334 331 328 326 323 322 322 323 321 317 312 308 304 304 309 316 320 321 322 321 321 323 323 320 320 323 325 326 326 326
256 254 255 254 248 245 245 245 242 237 230 222 215 212 212 214 217 217 214 213 218 221 212 194 180 176 184 194 192 185 181 184 199 216 221 203 191 188 193 203 203 205 253 276 277 281 286 301 347 7 351 334 327 324 322 319 317 318 321 323 321 320 322 322 315 304 299 304 312 318 320 319 320 322 322 321 320 316 315 319 322 323 325 326 325
257 255 248 241 239 239 237 233 227 221 215 210 207 207 208 210 212 211 209 210 214 213 199 184 179 184 192 193 191 190 188 188 202 220 219 203 205 206 206 214 220 238 263 268 270 275 277 318 11 358 327 315 318 319 318 318 317 319 322 320 318 321 321 314 304 299 302 309 313 316 319 323 324 322 318 318 319 317 315 318 320 321 322 323 323
244 236 229 229 231 231 227 219 211 207 208 210 210 209 208 207 207 209 209 207 204 197 188 186 193 203 203 197 192 191 191 196 208 214 208 208 214 215 217 225 237 253 263 266 272 278 282 1 356 323 308 312 318 316 313 314 316 320 321 319 319 321 316 305 300 304 311 315 313 307 309 316 319 315 310 311 316 320 319 318 318 318 318 319 320
212 200 209 222 225 221 219 212 205 205 208 209 210 212 210 204 202 205 204 197 193 192 193 199 204 205 206 205 199 189 186 195 205 206 206 211 211 210 217 227 242 256 259 261 267 267 285 16 318 303 308 316 314 311 311 313 317 321 320 321 322 320 311 310 314 317 322 330 331 325 319 316 316 316 316 316 319 322 322 320 319 318 317 317 317
217 203 210 223 226 217 210 205 204 209 213 212 211 212 210 205 204 202 193 187 190 196 203 206 199 190 190 194 194 190 188 193 197 198 201 206 204 205 214 229 252 258 254 266 276 252 198 310 301 301 312 312 309 310 311 313 319 319 317 320 321 313 311 319 324 323 324 331 335 334 331 327 325 325 327 329 328 325 322 320 320 320 319 318 317
230 222 226 234 234 214 198 200 208 216 221 218 213 210 208 207 206 198 187 183 188 191 191 193 194 192 190 189 189 191 188 182 185 193 200 203 203 208 221 244 258 251 247 302 324 279 179 282 294 304 314 311 307 309 311 315 318 315 313 317 313 308 315 324 319 308 316 328 333 333 331 331 332 331 330 329 326 322 320 319 318 318 318 317 316
218 225 233 239 237 214 201 206 214 219 221 218 210 207 208 207 203 196 188 185 185 183 179 179 182 186 191 190 187 185 183 181 189 201 207 211 214 220 235 246 242 239 311 336 346 13 259 282 296 307 312 306 303 308 312 314 312 310 311 311 308 311 321 321 308 307 318 327 327 325 325 328 329 325 322 321 319 319 318 318 317 317 317 316 315
214 224 236 243 238 217 208 212 213 214 217 214 204 202 207 205 198 193 189 187 186 185 182 178 174 172 175 177 176 177 184 193 203 208 211 219 225 231 242 238 212 202 311 314 320 312 279 283 296 304 302 299 301 306 309 308 308 309 306 302 305 312 314 308 309 317 322 320 316 316 318 318 317 315 315 317 318 319 320 320 319 317 315 314 313
221 227 236 242 236 217 209 210 206 206 212 207 196 197 205 203 195 191 190 190 191 189 184 179 175 170 166 167 173 185 195 203 209 212 215 224 230 236 244 233 203 190 238 267 262 266 274 284 294 298 297 298 301 304 306 306 305 302 298 301 309 317 316 312 314 312 305 301 306 310 308 307 311 316 319 321 323 323 321 317 314 313 313 313 313
230 231 234 238 233 217 209 208 204 203 204 199 194 199 203 198 192 192 194 194 193 190 185 180 176 174 171 173 185 198 204 208 211 214 219 228 235 240 239 224 201 197 232 251 258 267 277 289 296 296 296 298 302 303 301 296 294 296 302 310 320 325 321 313 302 293 293 299 307 313 316 320 325 328 328 325 322 317 314 312 312 314 317 318 317
239 234 231 234 232 217 210 211 207 201 198 196 196 199 199 194 191 193 195 193 190 188 184 179 175 176 183 193 201 202 203 207 211 217 225 231 234 230 218 200 190 226 246 249 260 273 283 292 296 292 291 297 302 297 289 289 297 306 313 319 320 311 300 293 289 291 300 312 320 327 332 334 331 327 322 317 312 311 312 315 318 319 319 319 318
253 243 234 231 226 214 211 214 210 204 202 201 200 200 201 200 198 197 194 191 188 186 183 180 178 184 199 210 207 202 202 208 215 221 222 222 220 210 195 188 207 234 244 253 264 274 284 289 284 283 291 298 294 283 283 295 308 315 316 313 305 297 294 294 295 301 313 327 332 331 327 322 320 319 317 316 316 317 319 320 320 319 318 316 315
263 257 246 236 228 220 219 220 217 212 209 205 202 205 207 205 202 200 196 191 188 184 182 183 189 203 217 214 203 200 204 208 210 207 204 208 219 213 198 201 219 233 245 254 257 261 271 275 275 284 295 293 279 278 292 308 316 315 310 305 299 298 300 303 308 322 336 336 328 316 307 308 315 319 321 324 325 324 323 321 318 316 313 311 310
264 263 255 242 232 227 223 221 219 215 208 202 202 210 213 209 204 200 195 191 187 184 186 194 206 215 212 199 192 196 201 194 189 198 202 203 210 213 209 215 231 241 239 238 245 259 271 274 281 292 294 279 274 287 305 318 317 309 306 302 298 301 309 319 332 341 332 315 302 297 300 309 316 321 325 328 327 324 321 317 314 313 313 312 313
261 260 249 233 226 225 223 221 220 218 213 211 215 219 217 210 203 197 192 189 187 189 199 209 207 197 191 189 189 195 196 185 188 204 211 203 206 216 223 228 234 228 222 229 248 269 279 283 291 294 282 274 284 300 317 324 318 310 307 304 302 307 318 330 331 316 301 295 297 301 307 312 316 320 325 328 326 323 320 318 318 318 318 317 315
255 257 250 234 228 229 227 225 225 227 229 232 231 223 212 204 197 192 189 189 192 201 211 207 188 178 187 197 198 199 203 198 195 201 205 202 204 211 215 219 220 218 221 238 263 281 289 295 298 293 283 284 298 313 324 325 318 314 314 313 311 311 315 316 310 303 301 301 304 307 309 312 316 321 325 326 325 323 323 324 323 321 317 313 311
247 250 250 241 234 232 229 229 230 232 231 227 219 208 201 196 191 188 188 194 203 207 200 187 180 186 199 201 198 198 205 208 202 202 205 208 208 208 211 220 226 229 236 254 274 287 295 299 298 291 287 294 306 315 320 321 319 317 318 316 308 301 304 307 307 307 307 308 310 312 314 315 318 322 325 325 325 325 325 325 322 317 313 311 309
235 242 244 239 236 236 235 233 231 227 220 212 203 195 191 189 188 190 195 204 208 197 180 175 185 196 196 193 193 199 206 207 204 201 201 203 206 208 211 216 223 232 246 264 281 291 297 301 303 300 299 305 312 315 319 327 330 322 307 297 293 295 300 304 304 304 308 312 316 318 319 319 321 324 325 325 325 325 324 323 321 318 317 315 312
237 245 245 240 240 242 239 231 223 214 206 200 194 190 188 188 191 197 203 207 200 184 172 174 189 195 191 191 197 206 208 205 201 198 199 202 207 212 217 223 230 240 256 276 291 297 299 303 307 309 309 312 314 316 324 338 342 317 298 299 302 303 303 302 302 304 309 313 316 319 321 321 323 325 324 324 325 325 323 323 323 322 320 317 312
234 240 238 238 240 238 230 219 209 201 196 193 191 190 190 192 197 205 209 204 194 184 179 184 195 196 193 196 206 213 204 191 188 193 200 204 205 209 219 233 242 250 264 285 297 297 298 302 305 308 313 315 316 321 331 339 326 304 304 309 309 306 305 305 305 307 310 312 315 319 321 321 321 323 324 326 326 325 323 323 325 323 319 313 309
230 233 232 236 240 233 219 208 199 195 194 193 192 192 194 200 209 212 204 194 188 185 185 193 201 198 191 194 207 216 204 185 183 193 204 205 205 212 228 242 250 256 270 288 295 294 298 303 307 312 316 317 319 325 328 315 299 302 308 309 305 304 307 309 310 311 313 315 317 319 319 320 323 325 327 327 326 324 325 327 326 322 316 312 311
225 230 233 238 236 223 211 204 198 196 196 195 193 196 204 212 209 197 189 187 190 192 195 202 208 204 198 199 206 209 201 192 192 201 207 206 207 218 234 246 252 259 273 287 290 290 294 301 309 316 319 322 325 321 301 288 294 303 307 305 303 306 310 311 313 314 315 316 318 320 322 324 326 326 327 328 328 327 330 332 330 324 320 318 316
224 230 235 234 225 212 205 202 199 198 198 199 201 207 212 205 192 187 189 194 200 203 206 208 209 206 204 204 204 200 197 198 202 206 206 207 210 218 231 241 249 258 273 287 292 293 295 302 310 314 314 316 314 298 285 287 296 301 302 303 305 308 311 313 316 318 319 320 322 325 326 326 326 328 330 331 329 330 335 338 335 329 323 319 315
Height
1508 1510 1511 1513 1514 1515 1517 1518 1519 1521 1521 1522 1522 1523 1524 1525 1525 1526 1527 1528 1528 1528 1529 1529 1529 1529 1528 1527 1526 1525 1524 1524 1523 1522 1521 1521 1520 1520 1520 1519 1519 1519 1519 1518 1517 1516 1516 1515 1515 1514 1514 1513 1512 1512 1512 1511 1512 1511 1511 1511 1511 1510 1509 1509 1509 1508 1508 1508 1507 1506 1506 1505 1504 1504 1503 1501 1500 1499 1499 1498 1497 1496 1496 1495 1495
1507 1509 1510 1511 1513 1514 1516 1517 1518 1520 1520 1521 1521 1522 1523 1524 1525 1525 1526 1527 1527 1528 1528 1528 1528 1528 1527 1527 1525 1525 1524 1523 1523 1522 1522 1521 1521 1520 1520 1519 1519 1519 1519 1518 1517 1516 1516 1515 1515 1514 1514 1513 1513 1512 1512 1511 1511 1510 1510 1510 1510 1510 1509 1509 1508 1508 1507 1507 1506 1506 1505 1504 1504 1503 1503 1501 1500 1498 1498 1497 1496 1495 1494 1494 1493
1505 1507 1508 1510 1511 1513 1514 1515 1517 1518 1519 1520 1520 1521 1522 1523 1524 1524 1525 1526 1526 1527 1527 1527 1527 1527 1526 1526 1525 1524 1523 1523 1523 1522 1522 1521 1521 1520 1520 1520 1519 1519 1519 1518 1517 1516 1516 1516 1515 1515 1514 1514 1513 1513 1512 1511 1511 1510 1510 1509 1509 1509 1508 1508 1508 1507 1507 1506 1506 1505 1505 1504 1503 1502 1501 1500 1498 1497 1497 1496 1495 1494 1493 1492 1492
1504 1505 1507 1508 1510 1511 1513 1514 1515 1517 1518 1519 1519 1520 1521 1522 1523 1524 1525 1525 1525 1526 1526 1526 1526 1526 1525 1525 1524 1523 1523 1522 1522 1522 1521 1521 1521 1520 1520 1520 1519 1519 1518 1518 1517 1516 1516 1516 1516 1515 1515 1514 1513 1513 1512 1511 1511 1510 1510 1509 1508 1508 1508 1508 1507 1507 1506 1505 1505 1505 1504 1504 1503 1501 1499 1498 1497 1496 1495 1494 1493 1492 1492 1491 1490
1502 1504 1505 1506 1508 1509 1511 1512 1514 1515 1516 1517 1518 1519 1520 1522 1522 1523 1524 1525 1525 1525 1525 1525 1525 1525 1525 1524 1524 1523 1523 1522 1522 1521 1521 1521 1520 1520 1520 1520 1520 1519 1518 1518 1517 1516 1516 1516 1516 1515 1515 1514 1513 1513 1512 1511 1511 1510 1510 1509 1508 1508 1507 1507 1507 1506 1506 1505 1504 1504 1503 1502 1502 1500 1498 1496 1495 1494 1493 1492 1492 1491 1490 1489 1488
1501 1502 1503 1504 1506 1507 1509 1510 1512 1513 1514 1515 1517 1518 1519 1521 1521 1522 1524 1524 1524 1524 1524 1525 1525 1525 1524 1524 1523 1523 1522 1522 1522 1521 1521 1521 1520 1520 1520 1520 1520 1519 1519 1518 1518 1517 1516 1516 1516 1515 1515 1514 1514 1513 1512 1512 1511 1510 1510 1509 1508 1508 1507 1507 1506 1506 1505 1504 1503 1503 1502 1501 1500 1499 1497 1495 1494 1493 1492 1491 1490 1489 1488 1487 1486
1499 1500 1501 1502 1504 1505 1506 1508 1510 1511 1513 1514 1515 1517 1518 1520 1520 1521 1522 1523 1523 1523 1523 1524 1524 1523 1523 1522 1522 1522 1522 1522 1522 1521 1521 1521 1521 1521 1520 1520 1520 1519 1519 1518 1518 1518 1517 1516 1516 1515 1514 1514 1513 1513 1513 1512 1511 1511 1510 1509 1509 1508 1507 1507 1506 1505 1504 1504 1503 1502 1501 1500 1499 1497 1496 1495 1494 1493 1491 1490 1489 1488 1487 1486 1484
1496 1498 1499 1500 1501 1503 1504 1506 1508 1510 1511 1512 1514 1516 1517 1518 1519 1520 1521 1521 1522 1522 1522 1522 1522 1521 1521 1521 1521 1521 1521 1522 1522 1521 1521 1521 1521 1521 1521 1521 1521 1520 1519 1519 1518 1518 1518 1517 1516 1515 1515 1514 1514 1513 1513 1513 1512 1511 1510 1510 1509 1508 1507 1507 1506 1505 1504 1504 1503 1502 1501 1500 1498 1496 1495 1494 1493 1492 1491 1490 1489 1487 1486 1484 1483
1494 1496 1497 1498 1499 1501 1503 1505 1506 1508 1509 1511 1512 1514 1515 1517 1517 1518 1519 1519 1520 1520 1520 1520 1520 1520 1520 1520 1521 1521 1521 1522 1522 1522 1522 1522 1522 1522 1522 1522 1522 1521 1520 1520 1519 1519 1518 1517 1517 1516 1515 1515 1514 1513 1513 1513 1513 1512 1511 1510 1509 1508 1508 1507 1506 1505 1504 1503 1503 1502 1501 1499 1498 1497 1495 1494 1493 1492 1491 1490 1488 1486 1485 1483 1482
1492 1493 1495 1496 1497 1499 1501 1503 1504 1506 1507 1509 1511 1512 1514 1515 1516 1517 1517 1517 1518 1518 1518 1518 1518 1518 1519 1520 1520 1521 1521 1521 1521 1522 1522 1522 1522 1522 1522 1523 1523 1523 1522 1521 1521 1520 1519 1518 1517 1517 1516 1515 1514 1514 1513 1513 1513 1513 1512 1511 1510 1509 1508 1507 1506 1506 1505 1503 1502 1502 1500 1499 1498 1497 1495 1494 1493 1491 1490 1488 1486 1484 1483 1480 1479
1489 1491 1493 1494 1496 1497 1499 1501 1502 1504 1506 1508 1510 1511 1512 1513 1514 1515 1515 1515 1515 1516 1516 1516 1516 1516 1517 1519 1519 1520 1520 1520 1521 1521 1522 1522 1522 1522 1522 1523 1524 1524 1523 1523 1522 1521 1520 1519 1518 1518 1517 1516 1515 1514 1513 1513 1513 1513 1513 1512 1511 1509 1508 1507 1507 1506 1505 1503 1502 1501 1500 1499 1497 1496 1494 1493 1491 1490 1488 1487 1485 1482 1481 1479 1476
1486 1488 1490 1492 1494 1495 1497 1499 1500 1503 1504 1506 1508 1509 1510 1511 1512 1513 1513 1513 1513 1514 1515 1515 1514 1514 1516 1517 1518 1518 1518 1519 1519 1520 1520 1520 1521 1522 1522 1523 1523 1524 1523 1523 1522 1522 1521 1519 1518 1518 1517 1516 1515 1515 1514 1513 1512 1513 1513 1512 1511 1510 1508 1507 1506 1505 1504 1503 1502 1501 1499 1498 1496 1495 1493 1491 1490 1488 1487 1485 1483 1481 1479 1478 1476
1484 1486 1488 1490 1491 1493 1495 1497 1499 1501 1503 1504 1506 1507 1508 1509 1509 1510 1510 1510 1512 1512 1512 1512 1512 1513 1515 1515 1516 1516 1517 1518 1518 1518 1518 1519 1519 1520 1521 1522 1522 1523 1523 1522 1522 1522 1521 1520 1518 1518 1517 1517 1516 1515 1514 1513 1512 1512 1513 1512 1511 1510 1509 1507 1506 1505 1504 1502 1501 1500 1499 1497 1495 1494 1493 1491 1489 1487 1485 1484 1482 1480 1478 1477 1476
1482 1483 1485 1487 1489 1491 1493 1495 1497 1499 1500 1502 1503 1505 1506 1506 1507 1507 1507 1508 1509 1509 1509 1509 1510 1511 1512 1513 1514 1515 1515 1516 1516 1517 1517 1517 1517 1518 1519 1520 1521 1522 1522 1522 1522 1522 1521 1520 1518 1518 1517 1517 1516 1515 1514 1513 1512 1512 1512 1512 1511 1510 1509 1507 1506 1505 1503 1502 1500 1499 1498 1497 1495 1494 1492 1491 1489 1487 1485 1483 1481 1480 1478 1477 1475
1480 1481 1483 1485 1487 1489 1491 1493 1495 1496 1498 1499 1501 1502 1504 1503 1503 1504 1505 1506 1507 1506 1507 1507 1508 1509 1511 1511 1512 1513 1513 1514 1514 1515 1515 1515 1515 1516 1518 1519 1520 1521 1521 1521 1521 1521 1521 1519 1518 1518 1517 1516 1516 1515 1514 1513 1512 1512 1512 1511 1510 1510 1509 1507 1505 1504 1502 1501 1500 1499 1497 1496 1495 1494 1492 1490 1489 1487 1485 1483 1481 1480 1478 1476 1474
1478 1479 1480 1483 1485 1487 1489 1491 1493 1494 1495 1496 1498 1500 1501 1500 1500 1500 1502 1504 1504 1505 1505 1505 1506 1507 1509 1510 1510 1511 1512 1512 1513 1513 1514 1514 1514 1515 1516 1518 1518 1519 1520 1520 1521 1521 1520 1519 1518 1518 1517 1516 1516 1515 1514 1513 1512 1511 1511 1510 1509 1508 1508 1506 1504 1502 1501 1499 1498 1498 1497 1496 1495 1493 1491 1490 1488 1486 1484 1482 1481 1478 1476 1474 1473
1476 1477 1478 1481 1483 1485 1487 1489 1490 1492 1493 1494 1495 1496 1496 1496 1497 1498 1500 1502 1502 1503 1504 1504 1504 1506 1507 1508 1508 1509 1510 1511 1511 1512 1512 1513 1513 1514 1516 1517 1517 1518 1519 1520 1521 1521 1520 1519 1519 1518 1517 1516 1515 1514 1514 1513 1512 1510 1509 1509 1508 1507 1505 1504 1502 1500 1499 1498 1497 1497 1496 1495 1494 1492 1491 1489 1487 1485 1483 1481 1479 1477 1475 1473 1471
1474 1475 1476 1479 1481 1483 1485 1486 1488 1489 1491 1492 1492 1492 1492 1493 1494 1496 1498 1500 1501 1502 1502 1502 1504 1505 1506 1507 1507 1508 1509 1509 1509 1510 1512 1513 1513 1514 1515 1516 1516 1517 1517 1518 1519 1520 1519 1519 1518 1518 1517 1516 1515 1514 1513 1512 1511 1509 1508 1507 1506 1505 1503 1501 1499 1498 1497 1496 1496 1495 1495 1494 1493 1492 1490 1489 1487 1485 1482 1481 1479 1476 1475 1474 1472
1472 1473 1475 1476 1478 1480 1482 1483 1485 1486 1487 1489 1489 1489 1489 1491 1493 1494 1496 1498 1499 1499 1500 1502 1503 1504 1505 1506 1507 1507 1508 1508 1508 1509 1510 1511 1512 1513 1514 1515 1516 1517 1517 1517 1518 1519 1518 1518 1518 1518 1517 1516 1515 1514 1513 1511 1510 1509 1508 1507 1505 1504 1502 1500 1499 1497 1496 1495 1494 1494 1493 1493 1492 1491 1490 1488 1486 1484 1482 1480 1478 1476 1475 1474 1472
1470 1472 1473 1473 1474 1476 1477 1480 1482 1483 1483 1484 1486 1486 1487 1489 1490 1491 1493 1495 1496 1498 1500 1501 1502 1502 1503 1504 1505 1505 1506 1506 1507 1507 1508 1510 1511 1511 1513 1514 1515 1516 1516 1516 1516 1517 1517 1517 1517 1517 1516 1515 1515 1513 1512 1510 1509 1508 1507 1506 1505 1503 1502 1500 1499 1498 1496 1495 1494 1494 1493 1492 1491 1491 1490 1488 1486 1484 1481 1479 1477 1476 1475 1474 1472
1468 1470 1471 1471 1472 1472 1473 1475 1478 1478 1478 1480 1483 1485 1487 1488 1488 1489 1491 1493 1495 1498 1500 1500 1500 1500 1501 1501 1501 1502 1503 1505 1505 1506 1507 1509 1510 1510 1511 1512 1513 1514 1516 1516 1515 1515 1516 1516 1516 1516 1515 1514 1514 1512 1511 1510 1509 1508 1507 1506 1504 1503 1501 1500 1499 1498 1496 1495 1494 1493 1492 1491 1490 1489 1488 1487 1484 1482 1480 1478 1477 1476 1475 1473 1471
1467 1468 1469 1469 1469 1469 1470 1472 1473 1473 1474 1476 1478 1481 1483 1484 1485 1487 1489 1491 1494 1496 1497 1498 1499 1499 1499 1499 1500 1501 1502 1503 1505 1505 1506 1507 1508 1509 1510 1511 1512 1513 1515 1515 1514 1514 1514 1515 1515 1516 1515 1514 1513 1511 1510 1509 1508 1507 1506 1505 1504 1503 1501 1500 1499 1497 1496 1495 1494 1492 1491 1490 1489 1488 1487 1485 1482 1480 1479 1477 1476 1475 1474 1473 1471
1464 1464 1464 1464 1465 1466 1467 1468 1469 1470 1471 1471 1473 1476 1479 1481 1483 1485 1486 1489 1491 1493 1494 1495 1497 1497 1498 1499 1500 1501 1501 1502 1504 1504 1505 1506 1507 1508 1509 1509 1511 1512 1512 1512 1512 1512 1513 1514 1515 1514 1514 1513 1512 1511 1510 1509 1508 1507 1506 1504 1503 1502 1500 1499 1498 1496 1495 1494 1493 1491 1489 1488 1487 1486 1485 1483 1481 1479 1478 1476 1475 1473 1472 1471 1469
1459 1459 1461 1462 1463 1465 1466 1467 1469 1470 1470 1471 1473 1476 1478 1478 1480 1482 1484 1486 1488 1490 1492 1493 1494 1495 1496 1497 1498 1499 1500 1501 1502 1503 1504 1505 1506 1506 1507 1508 1509 1510 1511 1511 1511 1512 1513 1513 1513 1513 1512 1512 1511 1510 1509 1508 1507 1506 1505 1503 1502 1501 1500 1499 1497 1495 1494 1494 1492 1490 1488 1487 1485 1484 1482 1481 1479 1478 1477 1475 1473 1472 1470 1468 1467
1458 1459 1461 1463 1463 1465 1465 1467 1470 1471 1472 1473 1476 1478 1479 1478 1478 1479 1482 1484 1486 1488 1490 1491 1492 1493 1494 1495 1496 1497 1499 1500 1501 1502 1503 1504 1504 1505 1506 1508 1509 1510 1510 1511 1511 1512 1512 1512 1512 1511 1511 1510 1510 1509 1508 1507 1506 1505 1504 1502 1501 1500 1499 1498 1496 1495 1494 1493 1491 1489 1487 1485 1484 1482 1481 1480 1478 1477 1475 1473 1471 1469 1468 1466 1464
1460 1461 1463 1464 1465 1466 1466 1467 1468 1470 1472 1475 1477 1479 1479 1478 1477 1477 1479 1482 1484 1485 1487 1488 1490 1491 1492 1493 1494 1496 1498 1500 1500 1501 1502 1503 1503 1504 1505 1507 1508 1509 1509 1510 1510 1510 1511 1511 1510 1510 1510 1509 1508 1507 1506 1506 1505 1503 1502 1501 1500 1499 1498 1496 1495 1494 1493 1491 1489 1487 1485 1484 1482 1481 1480 1478 1477 1475 1473 1471 1468 1467 1465 1463 1461
1460 1461 1462 1463 1465 1466 1467 1466 1466 1466 1467 1470 1473 1476 1476 1476 1475 1476 1477 1479 1481 1483 1485 1487 1489 1490 1491 1493 1493 1494 1497 1499 1499 1500 1501 1501 1503 1504 1505 1506 1506 1507 1508 1508 1508 1509 1509 1509 1509 1509 1508 1507 1507 1506 1505 1504 1503 1503 1502 1501 1500 1499 1497 1496 1495 1494 1491 1489 1487 1485 1484 1482 1481 1479 1478 1477 1475 1473 1471 1469 1467 1465 1463 1461 1459
1457 1458 1459 1460 1460 1461 1463 1463 1462 1461 1461 1462 1466 1469 1471 1473 1474 1474 1476 1478 1480 1481 1483 1485 1487 1489 1490 1491 1491 1493 1496 1497 1497 1498 1500 1500 1502 1503 1503 1504 1505 1506 1506 1507 1507 1507 1507 1507 1507 1507 1506 1506 1506 1505 1505 1504 1503 1502 1501 1500 1499 1498 1497 1496 1494 1492 1490 1487 1485 1484 1482 1481 1479 1478 1477 1475 1473 1471 1470 1468 1466 1464 1462 1460 1458
1454 1455 1456 1456 1456 1457 1458 1458 1459 1459 1459 1459 1462 1465 1468 1471 1472 1473 1475 1477 1479 1480 1482 1483 1485 1487 1488 1488 1489 1491 1493 1494 1496 1497 1499 1499 1501 1502 1503 1504 1504 1505 1506 1506 1506 1506 1506 1506 1506 1505 1505 1506 1505 1504 1504 1503 1502 1501 1500 1499 1498 1496 1495 1494 1492 1489 1488 1486 1484 1482 1481 1479 1478 1477 1475 1473 1471 1469 1468 1466 1465 1463 1461 1459 1457
1451 1452 1453 1454 1454 1454 1455 1456 1456 1457 1457 1458 1460 1463 1466 1468 1470 1472 1474 1477 1478 1479 1481 1482 1484 1486 1487 1487 1488 1490 1491 1492 1494 1496 1498 1499 1500 1501 1502 1503 1503 1504 1505 1505 1505 1505 1505 1505 1505 1505 1505 1505 1504 1503 1503 1502 1501 1500 1499 1498 1496 1495 1494 1492 1489 1487 1486 1485 1483 1481 1479 1478 1476 1474 1472 1471 1469 1467 1466 1465 1464 1462 1460 1458 1456
1450 1450 1451 1451 1451 1452 1453 1454 1455 1456 1456 1457 1460 1462 1464 1467 1469 1471 1473 1475 1477 1479 1480 1481 1483 1484 1485 1486 1487 1489 1490 1492 1493 1495 1497 1498 1499 1500 1501 1502 1503 1503 1504 1504 1504 1504 1504 1504 1504 1504 1504 1503 1503 1502 1502 1500 1499 1498 1497 1496 1495 1494 1492 1490 1487 1486 1484 1483 1481 1480 1478 1476 1474 1472 1470 1469 1467 1466 1465 1464 1462 1461 1459 1458 1456
1449 1450 1450 1450 1450 1452 1453 1454 1454 1455 1456 1457 1459 1461 1463 1466 1467 1469 1472 1474 1476 1478 1479 1481 1482 1483 1484 1485 1486 1487 1489 1491 1493 1494 1496 1497 1498 1499 1500 1501 1502 1502 1502 1502 1503 1503 1503 1503 1503 1503 1503 1502 1502 1501 1500 1499 1498 1497 1496 1495 1494 1492 1490 1488 1486 1484 1482 1480 1478 1477 1475 1474 1472 1470 1469 1468 1466 1465 1464 1462 1461 1460 1458 1456 1455
1449 1450 1450 1449 1450 1451 1452 1453 1453 1454 1455 1457 1459 1460 1462 1464 1465 1467 1470 1473 1475 1477 1479 1480 1481 1481 1483 1484 1485 1486 1488 1490 1491 1493 1494 1496 1497 1498 1499 1500 1500 1501 1501 1501 1502 1502 1502 1502 1502 1502 1501 1501 1500 1500 1499 1498 1497 1496 1495 1494 1493 1491 1489 1488 1486 1483 1480 1478 1477 1475 1473 1472 1471 1469 1468 1467 1466 1465 1463 1462 1460 1459 1457 1455 1453
1448 1449 1448 1448 1448 1450 1451 1451 1452 1452 1453 1456 1457 1458 1460 1462 1463 1465 1467 1470 1472 1474 1476 1477 1478 1480 1481 1482 1484 1485 1487 1489 1490 1492 1493 1495 1496 1497 1498 1499 1499 1500 1500 1501 1501 1501 1501 1501 1501 1500 1500 1500 1499 1498 1497 1496 1495 1494 1493 1492 1491 1489 1488 1487 1485 1482 1479 1478 1476 1474 1473 1472 1470 1469 1468 1467 1465 1464 1462 1461 1459 1458 1456 1454 1452
1448 1448 1447 1447 1448 1449 1450 1450 1450 1451 1452 1454 1455 1457 1458 1460 1462 1464 1465 1467 1469 1471 1473 1474 1476 1478 1479 1481 1483 1485 1487 1488 1489 1491 1492 1494 1495 1496 1497 1498 1498 1499 1499 1499 1500 1500 1500 1500 1499 1499 1499 1498 1497 1497 1496 1495 1494 1493 1492 1491 1489 1488 1487 1485 1483 1480 1478 1477 1476 1474 1472 1471 1470 1469 1468 1466 1464 1463 1461 1460 1458 1456 1455 1453 1450
1447 1447 1446 1446 1447 1448 1449 1449 1449 1450 1451 1452 1455 1456 1456 1459 1461 1463 1463 1465 1467 1469 1471 1472 1474 1476 1478 1480 1482 1484 1486 1488 1489 1490 1491 1493 1494 1495 1496 1496 1497 1498 1498 1499 1499 1499 1499 1498 1498 1498 1497 1497 1496 1495 1494 1493 1492 1491 1490 1489 1487 1486 1484 1483 1480 1479 1477 1476 1474 1473 1472 1470 1469 1468 1466 1464 1463 1462 1460 1459 1457 1455 1453 1451 1449
1446 1445 1444 1445 1446 1447 1447 1448 1448 1449 1450 1452 1454 1454 1455 1457 1460 1460 1462 1464 1466 1468 1469 1470 1471 1474 1476 1479 1481 1483 1485 1487 1488 1489 1490 1491 1492 1494 1495 1495 1496 1496 1497 1498 1498 1497 1497 1497 1496 1496 1496 1495 1494 1493 1492 1491 1491 1489 1488 1486 1485 1483 1482 1480 1479 1477 1475 1473 1472 1471 1470 1469 1467 1466 1465 1463 1462 1461 1459 1457 1455 1453 1451 1449 1447
1444 1444 1443 1444 1444 1445 1446 1447 1448 1449 1450 1451 1452 1452 1453 1454 1457 1459 1462 1464 1465 1466 1468 1469 1471 1473 1475 1477 1480 1482 1484 1486 1487 1488 1489 1490 1491 1492 1493 1494 1494 1495 1496 1497 1496 1496 1495 1495 1495 1495 1494 1493 1493 1492 1490 1490 1489 1487 1485 1484 1482 1482 1480 1478 1476 1474 1472 1471 1470 1469 1468 1467 1466 1465 1464 1463 1461 1459 1457 1455 1453 1450 1448 1446 1445
1442 1442 1442 1442 1443 1444 1445 1445 1446 1447 1448 1449 1450 1451 1453 1455 1457 1458 1460 1462 1464 1465 1467 1468 1470 1472 1474 1476 1479 1481 1483 1484 1485 1486 1488 1489 1490 1491 1492 1492 1493 1494 1495 1495 1494 1494 1494 1494 1494 1493 1492 1492 1491 1490 1488 1487 1486 1485 1483 1482 1481 1480 1478 1475 1473 1472 1471 1470 1469 1468 1467 1466 1465 1464 1463 1461 1459 1457 1455 1452 1450 1448 1446 1444 1443
1439 1438 1439 1439 1440 1441 1442 1442 1443 1444 1445 1446 1447 1449 1452 1454 1456 1457 1458 1460 1462 1464 1466 1467 1469 1471 1473 1475 1477 1479 1481 1483 1484 1485 1486 1488 1489 1490 1490 1491 1493 1493 1493 1493 1493 1493 1493 1492 1492 1491 1491 1490 1489 1488 1486 1485 1484 1483 1481 1480 1479 1477 1475 1473 1471 1470 1469 1469 1468 1467 1466 1465 1464 1463 1461 1459 1457 1455 1452 1450 1448 1446 1445 1443 1441
1436 1436 1437 1437 1437 1438 1439 1440 1441 1441 1441 1443 1445 1447 1449 1452 1454 1456 1457 1459 1461 1463 1465 1466 1468 1470 1472 1474 1476 1478 1480 1482 1483 1484 1485 1486 1488 1489 1490 1491 1492 1492 1492 1492 1491 1491 1491 1491 1490 1489 1489 1488 1487 1486 1484 1483 1482 1481 1480 1478 1476 1474 1473 1471 1470 1469 1469 1468 1468 1466 1465 1464 1462 1460 1458 1456 1454 1452 1450 1448 1446 1445 1443 1441 1439
1434 1434 1435 1436 1436 1436 1437 1438 1439 1439 1440 1442 1443 1445 1448 1450 1453 1455 1456 1458 1460 1462 1464 1466 1467 1469 1471 1473 1476 1478 1480 1481 1482 1483 1485 1486 1487 1488 1489 1489 1490 1490 1490 1490 1489 1489 1489 1488 1488 1487 1487 1486 1485 1483 1483 1482 1480 1479 1478 1476 1474 1472 1471 1470 1469 1468 1468 1468 1466 1465 1463 1462 1460 1458 1456 1453 1451 1449 1448 1446 1444 1442 1440 1438 1436
1432 1433 1434 1434 1434 1434 1435 1436 1437 1438 1439 1441 1442 1443 1446 1449 1451 1453 1455 1457 1459 1461 1463 1464 1466 1468 1469 1472 1474 1477 1478 1479 1481 1482 1484 1485 1486 1486 1487 1488 1489 1488 1488 1487 1487 1487 1487 1486 1486 1485 1485 1484 1483 1481 1480 1479 1478 1477 1476 1474 1472 1471 1470 1468 1468 1467 1467 1466 1464 1463 1461 1460 1458 1455 1453 1451 1449 1447 1445 1443 1441 1439 1437 1435 1434
1430 1431 1432 1433 1433 1433 1433 1434 1435 1436 1438 1439 1441 1443 1445 1447 1449 1452 1454 1456 1458 1460 1461 1463 1464 1466 1468 1470 1472 1474 1476 1477 1479 1481 1482 1483 1484 1485 1486 1487 1487 1486 1485 1485 1485 1485 1484 1484 1484 1483 1482 1481 1480 1479 1478 1477 1476 1474 1473 1472 1471 1470 1468 1467 1467 1466 1465 1464 1463 1461 1459 1457 1455 1453 1451 1449 1447 1445 1442 1440 1438 1436 1434 1433 1431
1429 1429 1430 1430 1430 1431 1431 1432 1433 1435 1436 1438 1439 1441 1443 1446 1448 1451 1453 1455 1457 1458 1460 1461 1463 1464 1466 1468 1470 1472 1474 1475 1477 1479 1480 1481 1482 1483 1485 1485 1484 1483 1483 1484 1484 1483 1482 1482 1481 1481 1480 1479 1478 1477 1476 1475 1474 1473 1471 1470 1469 1468 1467 1466 1466 1465 1463 1462 1460 1458 1456 1454 1452 1450 1448 1446 1444 1442 1439 1437 1436 1434 1432 1430 1429
1429 1428 1428 1428 1428 1428 1429 1430 1431 1433 1434 1435 1437 1440 1442 1445 1447 1450 1452 1453 1455 1457 1458 1460 1461 1463 1464 1466 1469 1470 1471 1473 1475 1477 1478 1479 1480 1482 1482 1482 1480 1481 1482 1482 1481 1480 1480 1479 1479 1478 1477 1477 1476 1475 1474 1473 1472 1471 1469 1468 1467 1467 1466 1465 1464 1463 1461 1460 1458 1456 1454 1452 1450 1448 1446 1443 1442 1439 1437 1435 1433 1431 1429 1427 1426
1427 1426 1426 1427 1426 1427 1428 1428 1429 1431 1432 1434 1436 1439 1441 1444 1446 1448 1450 1452 1454 1455 1457 1459 1460 1462 1463 1465 1467 1468 1469 1471 1473 1474 1476 1477 1479 1480 1479 1478 1478 1479 1480 1480 1479 1479 1478 1477 1476 1476 1475 1474 1473 1473 1472 1471 1470 1469 1467 1466 1466 1466 1465 1464 1462 1461 1459 1458 1455 1453 1451 1449 1447 1445 1443 1441 1439 1437 1434 1432 1430 1428 1427 1425 1424
1425 1424 1425 1425 1425 1425 1426 1427 1428 1430 1432 1434 1436 1439 1441 1443 1445 1447 1449 1450 1452 1454 1455 1457 1459 1460 1461 1463 1465 1467 1468 1468 1470 1472 1474 1475 1477 1477 1476 1476 1477 1478 1479 1478 1478 1477 1476 1475 1474 1474 1473 1472 1471 1470 1470 1469 1468 1466 1465 1465 1465 1464 1463 1462 1460 1459 1457 1455 1453 1451 1449 1447 1445 1443 1441 1439 1436 1434 1432 1429 1427 1426 1424 1423 1422
1423 1423 1423 1423 1423 1424 1425 1426 1428 1430 1432 1434 1436 1439 1441 1442 1444 1446 1447 1448 1450 1452 1453 1454 1457 1458 1459 1460 1462 1464 1466 1467 1469 1471 1472 1473 1474 1474 1474 1474 1476 1477 1477 1477 1476 1475 1474 1473 1472 1472 1471 1470 1469 1468 1468 1467 1465 1464 1464 1464 1463 1462 1461 1460 1458 1456 1455 1453 1451 1449 1447 1445 1443 1441 1438 1436 1434 1432 1429 1427 1425 1424 1423 1421 1419
1421 1421 1421 1422 1422 1423 1424 1426 1427 1429 1432 1434 1436 1437 1439 1441 1442 1444 1445 1447 1448 1450 1451 1452 1454 1456 1457 1458 1460 1462 1464 1465 1467 1469 1471 1471 1472 1472 1472 1473 1474 1475 1475 1474 1473 1473 1472 1471 1470 1469 1469 1468 1468 1467 1466 1465 1463 1463 1462 1462 1461 1460 1459 1457 1456 1454 1452 1450 1449 1447 1445 1442 1440 1438 1436 1434 1432 1429 1427 1425 1423 1422 1420 1419 1417
1420 1420 1420 1421 1421 1422 1423 1425 1427 1429 1431 1433 1434 1436 1438 1439 1440 1442 1443 1444 1446 1448 1449 1451 1452 1454 1455 1456 1458 1460 1461 1463 1465 1467 1469 1470 1470 1470 1470 1471 1472 1472 1473 1472 1472 1471 1470 1469 1468 1467 1467 1466 1466 1465 1464 1462 1462 1462 1461 1460 1459 1458 1457 1456 1454 1452 1450 1448 1446 1444 1442 1440 1438 1436 1434 1431 1429 1427 1425 1423 1421 1420 1418 1417 1415